Regional Weather Roundup
Issued by NWS

Home | Current Version | Previous Version | Graphics & Text | Print | Product List | Glossary Off
Versions: 1 2 3 4 5 6 7 8 9 10 11 12 13 14 15 16 17 18 19 20 21 22 23 24 25 26 27 28 29 30 31 32 33 34 35 36 37 38 39 40 41 42 43 44 45 46 47 48 49 50

000
ASUS43 KTOP 060259
RWRKS

WEATHER ROUNDUP FOR KANSAS
NATIONAL WEATHER SERVICE GOODLAND KS
1000 PM CDT SUN JUL 05 2015

NOTE:  "FAIR" INDICATES FEW OR NO CLOUDS BELOW 12,000 FEET WITH NO
SIGNIFICANT WEATHER AND/OR OBSTRUCTIONS TO VISIBILITY.

KSZ001>006-013>018-027>032-041>047-060400-
NORTHWEST KANSAS

CITY           SKY/WX    TMP DP  RH WIND       PRES   REMARKS
GOODLAND       TSTM      77  63  61 SW20G28   29.86R
HAYS           CLOUDY    84  61  45 S15       29.80S
HILL CITY      CLOUDY    89  60  37 S17G24    29.76F
RUSSELL        CLOUDY    85  64  49 S16       29.79S
$$

KSZ061>065-074>080-084>089-060400-
SOUTHWEST KANSAS

CITY           SKY/WX    TMP DP  RH WIND       PRES   REMARKS
DODGE CITY     MOCLDY    82  61  48 S16       29.86R
ELKHART          N/A     80  56  43 S12         N/A
GARDEN CITY    CLOUDY    81  65  58 S15       29.84R
GREAT BEND     MOCLDY    82  63  51 S14       29.84R
LIBERAL        CLOUDY    82  59  44 S10       29.88S
$$

KSZ066>073-081>083-090>101-060400-
SOUTHEAST KANSAS

CITY           SKY/WX    TMP DP  RH WIND       PRES   REMARKS
CHANUTE        PTCLDY    83  67  58 S22G37    29.94R
COFFEYVILLE    PTCLDY    84  73  69 S12       29.93R
HUTCHINSON     MOCLDY    88  66  48 S14       29.85R
MEDICINE LODGE   N/A     87  68  52 S14G23    29.86R
NEWTON         MOCLDY    84  64  51 S13       29.90R
PARSONS        PTCLDY    85  74  69 S8        29.95R
WICHITA INTL   PTCLDY    87  68  52 S14       29.87R
WICHITA JABRA  PTCLDY    85  69  58 S15       29.88R
WINFIELD       CLEAR     85  71  63 S14G23    29.91R
$$

KSZ007>012-019>026-033>040-048>060-102>105-060400-
NORTHEAST KANSAS

CITY           SKY/WX    TMP DP  RH WIND       PRES   REMARKS
CONCORDIA      PTCLDY    85  64  49 S13       29.78F
EMPORIA        CLEAR     83  71  67 S15       29.88R
LAWRENCE       CLEAR     82  76  81 SE8       29.88S
MANHATTAN      CLEAR     87  71  58 S16       29.81F
OLATHE IND     LGT RAIN  82  73  74 SE17G26   29.92R
OLATHE EXE     CLEAR     80  71  74 S17       29.92R
SALINA         CLOUDY    87  63  44 S9        29.81R
TOPEKA BILLARD CLEAR     85  72  65 SE13      29.86S
TOPEKA FORBES  CLEAR     84  72  67 SE9       29.87S
$$


USA.gov is the U.S. government's official web portal to all federal, state and local government web resources and services.